ELFIN-A (43617 NORAD) Tracking and Keplerian Element Data

This shows tracking and keplerian element data for the satellite.

Feedback or suggestion? Click here.




ElementValue
Catalog43617
NameELFIN-A
Epoch Orbit994
Epoch Day323.32354752
Epoch Year2018
RAAN276.3029
Inclination93.0336
Eccentricity0.0018582
Argument of Perigee48.5109
Mean Anonmoly311.8008
Mean Motion15.36691079
Decay Rate-6E-08
L11 43617U 18070E 18323.32354752 -.00000006 00000-0 00000+0 0 9991
L22 43617 93.0336 276.3029 0018582 48.5109 311.8008 15.36691079 9947

Live tracking and technical data element details for ELFIN-A (NORAD 43617). ELFIN-A can be tracked NOW for your location showing map with azimuth and elevation plus other details from your city location.

Track the satellite on the map from your city or location and see movement details for azimuth, elevation, latitude, longitude, range, height, and movement on the map or in text.







IsCatalogInMostPopularTable: catalog: 43617, numindb: 19
Update: records affected: 1



GetName: 43617 ELFIN-A

Hit Count: updated at: Tue, 20 Nov 2018 12:22:57 GMT